Location: Maccacari
(45.1333°N, 11.1333°E)
Time: 15:36:53
(UTC+00:00)

SR - Pass Details

Date: 27 June 2021
Orbit: 577 x 878 km, 66.7° (Epoch: 24 July)

Event Time Altitude Azimuth Distance (km) Brightness Sun altitude
Rises 21:02:47 0° 332° (NNW) 3,317 ? -14.9°
Reaches altitude 10° 21:05:47 10° 347° (NNW) 2,330 ? -15.2°
Maximum altitude 21:10:01 23° 40° (NE) 1,522 ? -15.6°
Drops below altitude 10° 21:13:57 10° 93° (E) 2,159 ? -15.9°
Enters shadow 21:14:11 - 95° (E) 2,227 ? -15.9°
